Location: Budapest
(47.4979°N, 19.0402°E)
Time: 23:07:01
(UTC+01:00)

ISS - Pass Details

Date: 03 October 2020
Orbit: 417 x 420 km, 51.6° (Epoch: 26 October)

Event Time Altitude Azimuth Distance (km) Brightness Sun altitude
Rises 19:32:03 0° 294° (WNW) 2,370 1.7 -13.2°
Reaches altitude 10° 19:34:09 10° 292° (WNW) 1,504 0.4 -13.6°
Maximum altitude 19:37:31 72° 208° (SSW) 445 -3.6 -14.1°
Enters shadow 19:39:14 26° 128° (SE) 859 -2.7 -14.4°
